• In Hungary
  • List of Countries
  • For 7 days
  • Water Temperature
  • Satellite Maps
  • Weather Map
  • News
  • Weather Widgets
  • user-avatar
    Login

    Hourly Weather Krzepin

    Today, 26 September, Wednesday

    Time Temperature Precipitation Wind Pressure Humidity
    00:00 +5°C° 0 mm 2 mps 755 mmHg 77%
    01:00 +5°C° 0 mm 2 mps 755 mmHg 80%
    02:00 +4°C° 0 mm 2 mps 755 mmHg 81%
    03:00 +4°C° 0 mm 2 mps 755 mmHg 83%
    04:00 +4°C° 0 mm 2 mps 755 mmHg 84%
    05:00 +4°C° 0 mm 2 mps 755 mmHg 81%
    06:00 +4°C° 0 mm 3 mps 755 mmHg 78%
    07:00 +5°C° 0 mm 3 mps 755 mmHg 74%
    08:00 +8°C° 0 mm 3 mps 755 mmHg 66%
    09:00 +8°C° 0 mm 4 mps 755 mmHg 57%
    10:00 +11°C° 0 mm 4 mps 755 mmHg 49%
    11:00 +12°C° 0 mm 4 mps 754 mmHg 46%
    12:00 +13°C° 0 mm 4 mps 754 mmHg 43%
    13:00 +13°C° 0 mm 5 mps 753 mmHg 41%
    14:00 +13°C° 0 mm 5 mps 752 mmHg 43%
    15:00 +13°C° 0 mm 4 mps 752 mmHg 45%
    16:00 +13°C° 0 mm 4 mps 751 mmHg 47%
    17:00 +12°C° 0 mm 4 mps 751 mmHg 48%
    18:00 +12°C° 0 mm 4 mps 751 mmHg 49%
    19:00 +11°C° 0 mm 4 mps 751 mmHg 50%
    20:00 +12°C° 0 mm 5 mps 750 mmHg 49%
    21:00 +12°C° 0 mm 5 mps 750 mmHg 47%
    22:00 +11°C° 0 mm 6 mps 750 mmHg 46%
    23:00 +11°C° 0 mm 6 mps 750 mmHg 45%

    Tomorrow, 27 September, Thursday

    Time Temperature Precipitation Wind Pressure Humidity
    00:00 +11°C° 0 mm 6 mps 750 mmHg 44%
    01:00 +10°C° 0 mm 6 mps 749 mmHg 44%
    02:00 +10°C° 0 mm 6 mps 749 mmHg 46%
    03:00 +10°C° 0 mm 6 mps 749 mmHg 48%
    04:00 +10°C° 0 mm 6 mps 749 mmHg 50%
    05:00 +10°C° 0 mm 6 mps 748 mmHg 51%
    06:00 +11°C° 0 mm 6 mps 748 mmHg 52%
    07:00 +11°C° 0 mm 6 mps 748 mmHg 52%
    08:00 +13°C° 0 mm 6 mps 748 mmHg 53%
    09:00 +14°C° 0 mm 6 mps 749 mmHg 53%
    10:00 +15°C° 0 mm 6 mps 749 mmHg 54%
    11:00 +17°C° 0 mm 5 mps 748 mmHg 54%
    12:00 +19°C° 0 mm 5 mps 748 mmHg 55%
    13:00 +20°C° 0 mm 5 mps 748 mmHg 55%
    14:00 +20°C° 0 mm 5 mps 747 mmHg 57%
    15:00 +20°C° 0 mm 5 mps 747 mmHg 59%
    16:00 +20°C° 0 mm 4 mps 747 mmHg 61%
    17:00 +18°C° 0 mm 4 mps 746 mmHg 66%
    18:00 +17°C° 0 mm 3 mps 746 mmHg 71%
    19:00 +16°C° 0 mm 3 mps 746 mmHg 77%
    20:00 +14°C° 0 mm 3 mps 746 mmHg 75%
    21:00 +14°C° 0 mm 3 mps 745 mmHg 74%
    22:00 +14°C° 0 mm 4 mps 745 mmHg 73%
    23:00 +14°C° 0 mm 4 mps 745 mmHg 72%

    Day after tomorrow, 28 September, Friday

    Time Temperature Precipitation Wind Pressure Humidity
    00:00 +14°C° 0 mm 4 mps 744 mmHg 72%
    01:00 +13°C° 0 mm 4 mps 743 mmHg 72%
    02:00 +13°C° 0 mm 4 mps 743 mmHg 69%
    03:00 +13°C° 0 mm 4 mps 743 mmHg 67%
    04:00 +13°C° 0 mm 5 mps 742 mmHg 65%
    05:00 +13°C° 0 mm 5 mps 742 mmHg 63%
    06:00 +13°C° 0 mm 5 mps 742 mmHg 60%
    07:00 +14°C° 0 mm 5 mps 742 mmHg 58%
    08:00 +15°C° 0 mm 5 mps 742 mmHg 55%
    09:00 +16°C° 0 mm 5 mps 742 mmHg 51%
    10:00 +19°C° 0 mm 5 mps 742 mmHg 47%
    11:00 +19°C° 0 mm 5 mps 742 mmHg 48%
    12:00 +19°C° 0 mm 5 mps 742 mmHg 48%
    13:00 +20°C° 0 mm 5 mps 741 mmHg 48%
    14:00 +19°C° 0 mm 5 mps 741 mmHg 53%
    15:00 +17°C° 0 mm 5 mps 741 mmHg 59%
    16:00 +16°C° 0 mm 5 mps 741 mmHg 64%
    17:00 +14°C° 0 mm 4 mps 741 mmHg 67%
    18:00 +13°C° 0 mm 3 mps 742 mmHg 71%
    19:00 +13°C° 0 mm 2 mps 742 mmHg 74%
    20:00 +13°C° 0 mm 2 mps 742 mmHg 73%
    21:00 +12°C° 0 mm 2 mps 743 mmHg 71%
    22:00 +12°C° 0 mm 2 mps 743 mmHg 70%
    23:00 +10°C° 0 mm 2 mps 743 mmHg 70%

    29 September, Saturday

    Time Temperature Precipitation Wind Pressure Humidity
    00:00 +10°C° 0 mm 2 mps 743 mmHg 69%
    01:00 +10°C° 0 mm 2 mps 743 mmHg 69%
    02:00 +10°C° 0 mm 2 mps 743 mmHg 70%
    03:00 +10°C° 0 mm 2 mps 743 mmHg 71%
    04:00 +9°C° 0 mm 2 mps 743 mmHg 72%
    05:00 +9°C° 0 mm 2 mps 743 mmHg 73%
    06:00 +9°C° 0 mm 2 mps 744 mmHg 74%
    07:00 +9°C° 0 mm 2 mps 744 mmHg 74%
    08:00 +10°C° 0.1 mm 3 mps 745 mmHg 68%
    09:00 +11°C° 0.1 mm 3 mps 745 mmHg 62%
    10:00 +12°C° 0.1 mm 4 mps 746 mmHg 55%
    11:00 +13°C° 0.1 mm 4 mps 746 mmHg 51%
    12:00 +13°C° 0.1 mm 4 mps 745 mmHg 47%
    13:00 +14°C° 0.1 mm 4 mps 745 mmHg 43%
    14:00 +13°C° 0 mm 4 mps 746 mmHg 43%
    15:00 +13°C° 0 mm 4 mps 746 mmHg 43%
    16:00 +13°C° 0 mm 4 mps 746 mmHg 43%
    17:00 +11°C° 0 mm 3 mps 746 mmHg 47%
    18:00 +10°C° 0 mm 3 mps 747 mmHg 51%
    19:00 +9°C° 0 mm 2 mps 747 mmHg 55%
    20:00 +8°C° 0 mm 2 mps 747 mmHg 57%
    21:00 +8°C° 0 mm 2 mps 748 mmHg 58%
    22:00 +7°C° 0 mm 2 mps 748 mmHg 60%
    23:00 +8°C° 0 mm 1 mps 748 mmHg 62%

    30 September, Sunday

    Time Temperature Precipitation Wind Pressure Humidity
    00:00 +7°C° 0 mm 1 mps 748 mmHg 63%
    01:00 +7°C° 0 mm 1 mps 748 mmHg 64%
    02:00 +7°C° 0 mm 1 mps 748 mmHg 65%
    03:00 +6°C° 0 mm 1 mps 748 mmHg 67%
    04:00 +6°C° 0 mm 1 mps 748 mmHg 68%
    05:00 +7°C° 0 mm 1 mps 748 mmHg 66%
    06:00 +7°C° 0 mm 1 mps 748 mmHg 65%
    07:00 +8°C° 0 mm 1 mps 748 mmHg 64%
    08:00 +8°C° 0 mm 2 mps 748 mmHg 57%
    09:00 +10°C° 0 mm 2 mps 748 mmHg 50%
    10:00 +13°C° 0 mm 2 mps 748 mmHg 43%
    11:00 +14°C° 0 mm 2 mps 747 mmHg 40%
    12:00 +15°C° 0 mm 2 mps 746 mmHg 37%
    13:00 +15°C° 0 mm 2 mps 746 mmHg 34%
    14:00 +15°C° 0 mm 2 mps 746 mmHg 35%
    15:00 +15°C° 0 mm 2 mps 745 mmHg 37%
    16:00 +15°C° 0 mm 2 mps 745 mmHg 38%
    17:00 +13°C° 0 mm 2 mps 745 mmHg 43%
    18:00 +12°C° 0 mm 2 mps 745 mmHg 48%
    19:00 +9°C° 0 mm 2 mps 744 mmHg 53%
    20:00 +8°C° 0 mm 2 mps 744 mmHg 58%
    21:00 +8°C° 0 mm 2 mps 744 mmHg 63%
    22:00 +7°C° 0 mm 2 mps 744 mmHg 67%
    23:00 +7°C° 0 mm 2 mps 743 mmHg 73%

    1 October, Monday

    Time Temperature Precipitation Wind Pressure Humidity
    00:00 +7°C° 0 mm 2 mps 743 mmHg 78%
    01:00 +6°C° 0 mm 2 mps 742 mmHg 83%
    02:00 +6°C° 0 mm 2 mps 742 mmHg 86%
    03:00 +6°C° 0 mm 2 mps 741 mmHg 88%
    04:00 +6°C° 0 mm 2 mps 741 mmHg 91%
    05:00 +6°C° 0 mm 2 mps 741 mmHg 88%
    06:00 +7°C° 0 mm 2 mps 740 mmHg 86%
    07:00 +8°C° 0 mm 2 mps 740 mmHg 84%
    08:00 +10°C° 0 mm 2 mps 740 mmHg 74%
    09:00 +14°C° 0 mm 2 mps 739 mmHg 64%
    10:00 +16°C° 0 mm 3 mps 739 mmHg 54%
    11:00 +18°C° 0 mm 3 mps 738 mmHg 51%
    12:00 +19°C° 0 mm 3 mps 738 mmHg 48%
    13:00 +20°C° 0 mm 3 mps 737 mmHg 45%
    14:00 +19°C° 0 mm 3 mps 736 mmHg 48%
    15:00 +19°C° 0 mm 2 mps 736 mmHg 52%
    16:00 +19°C° 0 mm 1 mps 735 mmHg 56%
    17:00 +18°C° 0 mm 1 mps 735 mmHg 59%
    18:00 +17°C° 0 mm 2 mps 735 mmHg 62%
    19:00 +16°C° 0 mm 2 mps 735 mmHg 65%
    20:00 +16°C° 0.1 mm 2 mps 735 mmHg 68%
    21:00 +15°C° 0.1 mm 1 mps 735 mmHg 71%
    22:00 +15°C° 0.1 mm 1 mps 735 mmHg 75%
    23:00 +15°C° 0.2 mm 1 mps 734 mmHg 77%
    Show more